logo
Search for airport 
image banner adimage banner adimage banner ad
image banner ad

FALE - King Shaka International

Located in Durban, South Africa

ICAO - FALE, IATA - DUR

Data provided by Airmate  

General information

Coordinates: S29°36'42" E31°7'10"
Elevation is 304 feet MSL.
Magnetic variation is -25° East
View others Airports in Kwazulu-Natal

Operational data

Special qualification required
Current time UTC:
Current local time:
Weather
METAR: FALE 171600Z 01009KT CAVOK 20/15 Q1014 NOSIG
TAF: TAF FALE 171600Z 1718/1824 30006KT CAVOK TX26/1812Z TN11/1804Z BECMG 1809/1811 18010KT BECMG 1817/1819 27005KT SCT035
View NOTAMs / SUP AIP / TFR affecting this airport [VIEW]
Communications frequencies: [VIEW]

Runways:

RWY identifierQFULength (ft)Width (ft)SurfaceLDA (ft)
0637°12115187ASPH12139
24217°12115187ASPH12139

Airport contact information

Address: Durban South Africa

Other aviation service providers

Flight schools

Ballito Microlight

Ballito Microlight
comefly@mweb.co.za+27842663359

Satellite view of FALE